Regional Weather Roundup
Issued by NWS Wakefield, VA

Home | Current Version | Previous Version | Text Only | Print | Product List | Glossary On
Versions: 1 2 3 4 5 6 7 8 9 10 11 12 13 14 15 16 17 18 19 20 21 22 23 24 25 26 27 28 29 30 31 32 33 34 35 36 37 38 39 40 41 42 43 44 45 46 47 48 49 50
000
ASUS41 KAKQ 030615
RWRAKQ

REGIONAL WEATHER ROUNDUP
NATIONAL WEATHER SERVICE WAKEFIELD VA
200 AM EDT FRI JUL 03 2015

Note: "fair" indicates few or no clouds below 12,000 feet with no
significant weather and/or obstructions to visibility. * = Denotes
station may not report precipitation (e.g., rain,snow,etc.),
thunder or fog.

VAZ042-051-052>054-056-030700-
NORTHERN VIRGINIA

CITY           SKY/WX    TMP DP  RH WIND       PRES   REMARKS
WASH NATIONAL  CLEAR     70  66  87 CALM      29.93S
DULLES         PTCLDY    62  61  96 CALM      29.93S FOG
FORT BELVOIR   CLEAR     63  61  94 CALM      29.93S FOG
QUANTICO       CLEAR     66  63  90 NW6       29.93F
FREDERICKSBRG* CLEAR     65  65 100 CALM      29.92S
STAFFORD*      CLEAR     60  59  97 CALM      29.96F FOG
WARRENTON      FOG       62  62 100 CALM      29.93R VSB 1/4
CULPEPER*      MOCLDY    60  60 100 CALM      29.94S FOG
MANASSAS*      CLOUDY    63  63 100 CALM      29.93S VSB 1/2
LEESBURG*      CLEAR     64  64 100 CALM      29.94S FOG
WINCHESTER     CLEAR     64  64 100 SW3       29.94S FOG
FRONT ROYAL*   FAIR      61  61 100 S6        29.94R
LURAY*         FOG       63  63 100 CALM      29.96S VSB 1/2
$$

VAZ048-049-060>072-079>083-030700-
CENTRAL AND SOUTH CENTRAL VIRGINIA

CITY           SKY/WX    TMP DP  RH WIND       PRES   REMARKS
RICHMOND       CLOUDY    70  67  90 CALM      29.92F FOG
CHESTERFIELD*  NOT AVBL
PETERSBURG*    CLOUDY    69  69 100 CALM      29.93S FOG
HANOVER        CLEAR     64  64 100 CALM      29.94F FOG
TAPPAHANNOCK*  CLEAR     64  61  89 CALM      29.93S FOG
QUINTON*       CLOUDY    66  65  97 CALM      29.92F
CHARLOTTSVILLE PTCLDY    65  63  93 CALM      29.94S FOG
GORDONSVILLE*  FAIR      61  61 100 CALM      29.93S FOG
ORANGE*        PTCLDY    63  61  94 CALM      29.95S
LOUISA*        CLEAR     61  59  94 CALM      29.93S FOG
BUMPASS*       FAIR      62  62  98 CALM      29.93R
FARMVILLE*     CLOUDY    65  65 100 CALM      29.93F FOG
CREWE*         CLOUDY    67  65  95 CALM      29.93S
FORT PICKETT*  CLOUDY    67  66  97 W7        29.94S
CHASE CITY*    CLOUDY    67  67 100 CALM      29.94F
CLARKSVILLE*   CLOUDY    68  68 100 CALM      29.94S
SOUTH HILL*    CLOUDY    67  67  99 CALM      30.00S
LAWRENCEVILLE* NOT AVBL
EMPORIA*         N/A     70  70 100 CALM      29.94F FOG
$$

VAZ088>098-030700-
SOUTHEAST VIRGINIA

CITY           SKY/WX    TMP DP  RH WIND       PRES   REMARKS
NORFOLK        CLOUDY    75  69  81 E5        29.91R
VIRGINIA BEACH LGT RAIN  75  70  84 NE5       29.90S
NORFOLK NAVAL  CLOUDY    73  69  87 NW7       29.93R FOG
WEST POINT*    PTCLDY    69  66  91 CALM      29.93S
SALUDA*        CLOUDY    70  67  88 NW6       29.92S
NEWPORT NEWS   MOCLDY    69  68  96 CALM      29.92S FOG
LANGLEY AFB    MOCLDY    70  69  94 NW6       29.90S
FORT EUSTIS    MOCLDY    71  71 100 NE1       29.90S
WILLIAMSBURG*    N/A     72  70  94 CALM      29.93S
HR EXEC AP*    CLOUDY    72  70  94 CALM      29.94S
FRANKLIN*      MOCLDY    69  68  99 CALM      29.93S FOG
WAKEFIELD      CLOUDY    70  68  93 CALM      29.93S FOG
$$

VAZ020-022-025-037-045-030700-
WEST CENTRAL AND SOUTHWEST VIRGINIA

CITY           SKY/WX    TMP DP  RH WIND       PRES   REMARKS
STAUNTON*      PTCLDY    64  62  93 CALM      29.99R FOG
WAYNESBORO*    FAIR      61  61 100 S5        29.98S
HOT SPRINGS VA MOCLDY    61  58  88 CALM      30.04F
LYNCHBURG      PTCLDY    62  62 100 CALM      29.97S FOG
DANVILLE       CLOUDY    70  67  90 E3        29.94F FOG
SOUTH BOSTON*  CLOUDY    66  64  94 MISG      29.94F VSB 1/4
MARTINSVILLE   CLOUDY    67  67 100 CALM      29.98S FOG
ROANOKE        CLOUDY    69  64  84 CALM      29.98F
BLACKSBURG     CLOUDY    66  65  97 CALM      30.02F
DUBLIN*        HVY RAIN  67  67 100 CALM      30.00F
MARION*        CLOUDY    66  65  94 CALM      30.02F
HILLSVILLE*    CLOUDY    65  64  97 CALM      30.00F
RICHLANDS*     CLOUDY    65  65  99 CALM      29.99F
WISE*          CLOUDY    68  66  94 S3        30.00S
ABINGDON*      CLOUDY    68  68  98 CALM      29.97F
$$

MDZ021>025-VAZ099-100-030700-
SOUTHERN MARYLAND AND THE DELMARVA PENINSULA

CITY           SKY/WX    TMP DP  RH WIND       PRES   REMARKS
PATUXENT RIVER CLEAR     67  65  93 W5        29.91F
BAY BRIDGE APT   N/A     63  63 100 CALM      29.92S
LEONARDTOWN    CLEAR     63  61  94 CALM      29.93S
DOVER          CLEAR     65  65 100 CALM      29.89S FOG
GEORGETOWN     FOG       65  64  97 CALM      29.92S VSB 1/4
EASTON           N/A     65  65 100 CALM      29.95S FOG
CAMBRIDGE      CLEAR     63  61  94 CALM      29.91F
SALISBURY      FOG       64  63  96 CALM      29.90F VSB 3/4
OCEAN CITY     CLEAR     64  63  96 NW3       29.90F FOG
WALLOPS ISLAND PTCLDY    68  68 100 CALM      29.91S FOG
ACCOMACK*      MOCLDY    68  68 100 NE3       29.91S FOG
$$

NCZ012>017-030>032-030700-
NORTH CENTRAL AND EASTERN NORTH CAROLINA

CITY           SKY/WX    TMP DP  RH WIND       PRES   REMARKS
ROANOKE RAPIDS CLOUDY    70  68  94 CALM      29.92F FOG
RALEIGH        MOCLDY    72  70  93 N3        29.93S FOG
ELIZABETH CITY CLOUDY    72  70  93 NW6       29.89F
AHOSKIE*       PTCLDY    69  69  97 CALM      29.92F
EDENTON*       LGT RAIN  72  70  93 CALM      29.90F
CURRITUCK*     RAIN      73  70  90 CALM      29.91F
KILL DEVIL HLS LGT RAIN  72  70  93 CALM      29.89S VSB 3/4
MANTEO         DRIZZLE   72  71  96 CALM      29.90S
CAPE HATTERAS  MOCLDY    77  73  87 W9        29.91R
TARBORO*       LGT RAIN  73  71  95 CALM      29.92F
GOLDSBORO      PTCLDY    71  69  95 VRB1      29.89F
WASHINGTON     CLOUDY    73  72  96 CALM      29.92S
GREENVILLE     MOCLDY    72  72 100 CALM      29.93F
NEW BERN       PTCLDY    75  66  73 W5        29.93F
WILMINGTON     CLOUDY    72  69  90 W7        29.92F
$$

VAZ048-030700-
ELSEWHERE

CITY           SKY/WX    TMP DP  RH WIND       PRES   REMARKS
HARRISBURG PA  PTCLDY    65  61  87 CALM      29.91S
BALTIMORE      CLEAR     63  62  97 CALM      29.92S FOG
ANNAPOLIS      CLEAR     65  62  90 W3        29.91S
ANDREWS AFB    CLEAR     63  63  99 CALM      29.92S
PHILADELPHIA   PTCLDY    70  64  81 CALM      29.91S
HENDERSON NC   CLOUDY    70  68  93 CALM      29.94F FOG
GREENSBORO     PTCLDY    71  69  93 CALM      29.94F
ROCKY MOUNT    CLOUDY    72  71  97 CALM      29.91F
$$

VAZ100-030700-
MARINE

STATION/POSITION TIME  TEMP    WIND        PRES    WAVE   SWELL
                       AIR SEA DIR/SP/G            HT/PER HT/PER
                 (UTC) (F)     (DEG/KT/KT) (MB)    (FT/S) (FT/S)
BRANDYWINE LGT   0500   71 71  330/  6/  8 1013.0R
CAPE MAY NJ      0500   70 76   10/  1/  3 1012.5R
LEWES DE         0500   68 73  280/  5/  6 1012.8R
15NM E FENWICK I 0550   71 73              1012.2F   3/ 8
OCEAN-CITY-INLET 0500   68 71  360/  3/  4 1012.4S
WACHAPREAGUE VA  0500   70 79   30/  5/  7 1013.0R
GOOSES REEF MD   0600   73 77  350/  4/  6 1013.9F
COVE POINT MD    0500   70     320/  4/  5 1013.7R
SOLOMONS ISLAND  0500      79                N/A
BISHOPS HEAD MD  0500   70     350/  4/  5 1012.7R
PINEY POINT MD   0500           20/  5/  6   N/A
CAMBRIDGE MD     0500   71 79   20/  3/  4 1012.8R
LEWISETTA VA     0500   72 79   10/  5/  6 1012.8R
RAPPAHANNOCK LGT 0500          360/ 12/ 14 1013.1R
STINGRAY PT      0600   73 80  340/  8/ 10 1012.9F   1/ 2
YORK RVR RNG VA  0500   74     360/ 10/ 11 1012.3R
YORKTOWN VA      0500   72 80  330/  5/  7 1012.8R
JAMESTOWN VA     0600   71 83   10/  2/  4   N/A
DOMINION TERM VA 0500   73     360/  4/  6 1012.7R
KIPTOPEKE VA     0500      83   50/  3/  5   N/A
CHES BAY BRIDGE  0500   74 74   50/  5/  7 1012.3R
CAPE HENRY VA    0500   74      60/  3/  4 1011.1R
CHESAPEAKE LGHT  0500   74     360/  4/  5 1013.4R
WILLOUBY STN VA  0500   74     350/  4/  5 1013.7R
CAPE HENRY BUOY  0528      77                N/A     3/ 6
1ST LANDING BUOY 0600      75              1012.6R   2/ 3
CAPE CHARLES BUO 0526      76                N/A     2/ 8   2/ 8
OFFSHORE WE BUOY 0511      78                N/A     3/ 7   3/ 7
64NM E OF VA BCH 0550   76 77  230/ 12/ 16 1011.8F   4/ 7   3/ 7
DUCK PIER NC     0500   70 62  100/  4/  5 1012.0F
44100 DUCK FRF   0524      78                N/A     3/ 7
44056 DUCK FRF   0511      70                N/A     2/ 8
OREGON INLET NC  0500   74 83  290/  6/ 10 1012.7F
HATTERAS NC      0500   78 78  220/ 11/ 16 1012.5F
DIAMOND SHLS NC  0550   81 83  230/ 27/ 35 1011.8F   8/ 7   2/10
CAPE LOOKOUT NC  0600   78     290/ 17/ 18 1012.8F
$$


USA.gov is the U.S. government's official web portal to all federal, state and local government web resources and services.